Flag for Micronesia Weather past 2 weeks in Colonia, Yap, Micronesia

79 °F

Partly cloudy.

Feels Like: 82 °F
Forecast: 78 / 88 °F
Wind: 5 mph from North

Location: Yap Island

Current Time: Dec 1, 2015 at 3:02:19 AM

Latest Report: Dec 1, 2015 at 1:51 AM

Visibility: 12 mi

Pressure: 29.83 "Hg

Humidity: 93%

Dew point: 76 °F

Location of ColoniaLocation

Historic Weather in Colonia — Graph


Colonia temperature yesterday

Maximum temperature yesterday: 87 °F (at 1:52 PM)
Minimum temperature yesterday: 78 °F (at 1:53 AM)
Average temperature yesterday: 82 °F

Past Weeks' High & Low Weather Summary

High89 °F (Nov 17, 12:54 PM)96% (Nov 22, 12:50 AM)29.88 "Hg (Nov 22, 12:50 AM)
Low77 °F (Nov 21, 10:50 PM)67% (Nov 17, 12:54 PM)29.67 "Hg (Nov 21, 2:55 PM)
Average82 °F85%29.79 "Hg
* Reported Nov 16 1:52 AM — Dec 1 1:51 AM, Colonia, Weather by CustomWeather, © 2015

Note: Actual official high and low records may vary slightly from our data, if they occured in-between our weather recording intervals... More about our weather records


Colonia weather history for previous 24 hours

Time TempWeatherWind HumidityBarometerVisibility
1:51 AM
Tue, Dec 1
79 °FPartly cloudy.5 mph93%29.83 "Hg12 mi
12:55 AM79 °FPartly cloudy.8 mph94%29.83 "Hg12 mi
11:53 PM
Mon, Nov 30
80 °FPassing clouds.6 mph87%29.83 "Hg12 mi
10:55 PM80 °FPassing clouds.9 mph86%29.85 "Hg12 mi
9:55 PM80 °FPassing clouds.9 mph90%29.85 "Hg12 mi
8:53 PM81 °FPassing clouds.8 mph87%29.84 "Hg12 mi
7:52 PM81 °FPassing clouds.9 mph85%29.83 "Hg12 mi
6:54 PM81 °FPartly sunny.9 mph84%29.81 "Hg12 mi
5:53 PM81 °FBroken clouds.9 mph83%29.80 "Hg12 mi
4:52 PM83 °FBroken clouds.8 mph81%29.79 "Hg12 mi
3:51 PM86 °FBroken clouds.8 mph74%29.78 "Hg12 mi
2:51 PM87 °FBroken clouds.10 mph74%29.78 "Hg12 mi
1:52 PM87 °FBroken clouds.9 mph72%29.80 "Hg12 mi
12:51 PM87 °FScattered clouds.12 mph71%29.80 "Hg12 mi
11:52 AM87 °FScattered clouds.12 mph72%29.83 "Hg12 mi
10:51 AM86 °FScattered clouds.14 mph74%29.85 "Hg12 mi
9:53 AM85 °FPartly sunny.12 mph77%29.85 "Hg12 mi
8:51 AM83 °FBroken clouds.9 mph81%29.85 "Hg12 mi
7:56 AM80 °FCloudy.8 mph84%29.84 "Hg12 mi
6:50 AM78 °FSprinkles. Overcast.9 mph94%29.83 "Hg10 mi
5:58 AM78 °FSprinkles. Overcast.3 mph94%29.80 "Hg10 mi
4:53 AM79 °FOvercast.6 mph92%29.80 "Hg12 mi
3:52 AM78 °FOvercast.7 mph92%29.80 "Hg12 mi
Weather by CustomWeather, © 2015

See weather overviewHow to use our weather pages